Location: NCO
(38.4404°N, 77.1340°W)
Time: 12:07:43
(UTC-04:00)

ISS - Visible Passes

Search period start: 24 March 2017 00:00
Search period end: 03 April 2017 00:00
Orbit: 399 x 409 km, 51.6° (Epoch: 25 March)

Date Brightness Start Highest point End Pass type
(mag) Time Alt. Az. Time Alt. Az. Time Alt. Az.
24 Mar -1.2 04:51:39 17° ESE 04:51:39 17° ESE 04:52:34 10° ESE visible
24 Mar -1.9 06:24:22 12° WSW 06:25:27 14° SW 06:27:14 10° SSW visible
25 Mar -1.6 05:35:20 15° S 05:35:20 15° S 05:36:07 10° SSE visible
25 Mar -1.8 20:33:20 10° S 20:34:28 15° SSE 20:34:28 15° SSE visible
26 Mar -2.7 21:16:12 10° SW 21:18:22 39° WSW 21:18:22 39° WSW visible
27 Mar -3.6 20:23:58 10° SSW 20:27:05 47° SE 20:29:15 18° ENE visible
27 Mar -0.6 22:01:07 10° W 22:01:58 15° WNW 22:01:58 15° WNW visible
28 Mar -2.3 21:08:08 10° W 21:11:09 34° NNW 21:12:33 23° NNE visible
29 Mar -3.4 20:15:26 10° WSW 20:18:39 64° NW 20:21:54 10° NE visible
29 Mar -0.8 21:53:54 10° NW 21:55:36 14° NNW 21:55:36 14° NNW visible
30 Mar -1.2 21:00:31 10° WNW 21:02:57 19° NNW 21:05:22 10° NNE visible
31 Mar -1.9 20:07:25 10° W 20:10:18 29° NNW 20:13:13 10° NNE visible
01 Apr -0.9 20:53:22 10° NW 20:54:49 12° NNW 20:56:16 10° N visible
02 Apr -1.1 19:59:51 10° WNW 20:02:03 17° NNW 20:04:16 10° NNE visible
